Location: Little Baddow
(51.7333°N, 0.5667°E)
Time: 06:42:28
(UTC+00:00)

CZ-2C R/B - Pass Details

Date: 08 November 2025
Orbit: 664 x 773 km, 98.4° (Epoch: 11 December)

Event Time Altitude Azimuth Distance (km) Brightness Sun altitude
Rises 04:12:39 0° 15° (NNE) 3,172 6.0 -26.7°
Reaches altitude 10° 04:14:55 10° 16° (NNE) 2,261 5.2 -26.3°
Maximum altitude 04:19:55 83° 105° (ESE) 767 2.4 -25.6°
Enters shadow 04:21:35 44° 188° (S) 1,047 3.0 -25.3°
